Weather History for Delta, CO

Change the Weather History Date:

Monday, August 11, 2014

  Actual Average (KMTJ) Record (KMTJ)
Temperature  
Mean Temperature 78 °F 72 °F  
Max Temperature 94 °F 87 °F 95 °F (2003)
Min Temperature 61 °F 57 °F 47 °F (2013)
Degree Days  
Heating Degree Days 0 0  
Month to date heating degree days 0  
Since 1 June heating degree days 39  
Since 1 July heating degree days 0  
Cooling Degree Days 12 7  
Month to date cooling degree days 83  
Year to date cooling degree days 505  
Since 1 June cooling degree days 488  
Growing Degree Days 28 (Base 50)    
Moisture  
Dew Point 41 °F    
Average Humidity 26    
Maximum Humidity 54    
Minimum Humidity 12    
Precipitation  
Precipitation 0.00 in 0.04 in 0.23 in (1999)
Month to date precipitation 0.45  
Year to date precipitation 6.52  
Sea Level Pressure  
Sea Level Pressure 30.26 in    
Wind  
Wind Speed 4 mph (SSE)    
Max Wind Speed 9 mph    
Max Gust Speed -    
Visibility 9 miles    
Events Thunderstorm    
T = Trace of Precipitation, MM = Missing Value Source: NWS Daily Summary

Daily Weather History Graph

Daily Weather History Graph

Search for Another Location

Airport:

Trip Planner

Search our weather history database for the weather conditions in past years. The results will help you decide how hot, cold, wet, or windy it might be!

Date:

Astronomy

Aug. 11, 2014 Rise Set
Actual Time 6:22 AM MDT 8:11 PM MDT
Civil Twilight 5:53 AM MDT 8:40 PM MDT
Nautical Twilight 5:18 AM MDT 9:15 PM MDT
Astronomical Twilight 4:41 AM MDT 9:52 PM MDT
Moon 8:43 PM MDT (8/11) 7:30 AM MDT (8/11)
Length of Visible Light 14h 46m
Length of Day
13h 49m
Full, 98% of the Moon is Illuminated
Aug 11
Full
Aug 17
Last Quarter
Aug 25
New
Sep 2
First Quarter
Sep 8
Full

Hourly Weather History & Observations

Time (MDT) Temp. Dew Point Humidity Pressure Visibility Wind Dir Wind Speed Gust Speed Precip Events Conditions
3:15 AM 63.3 °F 45.0 °F 51% 30.28 in 10.0 mi NE 4.6 mph - N/A   Clear
3:35 AM 65.1 °F 42.6 °F 44% 30.29 in 10.0 mi ESE 3.5 mph - N/A   Clear
3:55 AM 61.7 °F 43.9 °F 52% 30.30 in 10.0 mi NE 4.6 mph - N/A   Clear
4:15 AM 61.9 °F 45.0 °F 54% 30.30 in 10.0 mi North 5.8 mph - N/A   Clear
8:15 AM 68.4 °F 42.8 °F 40% 30.34 in 5.0 mi ENE 4.6 mph - N/A   Haze
9:15 AM 72.5 °F 42.3 °F 34% 30.34 in 7.0 mi Calm Calm - N/A   Clear
9:35 AM 73.8 °F 42.1 °F 32% 30.34 in 7.0 mi SE 3.5 mph - N/A   Clear
9:55 AM 75.6 °F 42.4 °F 31% 30.34 in 7.0 mi Calm Calm - N/A   Clear
10:15 AM 77.5 °F 41.5 °F 28% 30.33 in 7.0 mi East 3.5 mph - N/A   Clear
10:35 AM 79.2 °F 42.6 °F 27% 30.33 in 7.0 mi Calm Calm - N/A   Clear
10:55 AM 79.7 °F 43.9 °F 28% 30.33 in 7.0 mi Calm Calm - N/A   Clear
11:15 AM 81.3 °F 43.9 °F 27% 30.32 in 10.0 mi SSW 4.6 mph - N/A   Clear
11:35 AM 82.8 °F 43.7 °F 25% 30.32 in 10.0 mi SSW 3.5 mph - N/A   Clear
11:55 AM 84.2 °F 42.3 °F 23% 30.30 in 10.0 mi South 5.8 mph - N/A   Clear
12:15 PM 85.1 °F 42.8 °F 23% 30.30 in 5.0 mi Calm Calm - N/A   Haze
12:35 PM 87.1 °F 42.6 °F 21% 30.29 in 10.0 mi SSE 5.8 mph - N/A   Clear
12:55 PM 88.3 °F 42.6 °F 20% 30.28 in 7.0 mi South 4.6 mph - N/A Thunderstorm Clear
1:15 PM 89.8 °F 43.0 °F 20% 30.28 in 10.0 mi SW 3.5 mph - N/A   Clear
1:55 PM 91.2 °F 42.4 °F 18% 30.26 in 10.0 mi SE 4.6 mph - N/A   Clear
2:55 PM 90.3 °F 35.2 °F 14% 30.25 in 7.0 mi SSW 5.8 mph - N/A Thunderstorm Clear
3:15 PM 91.0 °F 34.5 °F 14% 30.23 in 10.0 mi West 4.6 mph - N/A   Clear
3:55 PM 94.5 °F 34.7 °F 12% 30.22 in 10.0 mi WSW 5.8 mph - N/A   Clear
4:15 PM 93.6 °F 35.8 °F 13% 30.21 in 10.0 mi NW 5.8 mph - N/A   Clear
4:35 PM 92.8 °F 36.1 °F 14% 30.21 in 10.0 mi NNW 4.6 mph - N/A   Clear
4:55 PM 92.5 °F 35.6 °F 13% 30.21 in 10.0 mi NNE 4.6 mph - N/A   Clear
5:15 PM 93.2 °F 35.1 °F 13% 30.20 in 10.0 mi NE 6.9 mph - N/A   Clear
5:35 PM 92.7 °F 35.2 °F 13% 30.19 in 10.0 mi Calm Calm - N/A   Clear
5:55 PM 93.0 °F 34.9 °F 13% 30.19 in 10.0 mi ESE 3.5 mph - N/A   Clear
6:15 PM 92.3 °F 36.9 °F 14% 30.18 in 10.0 mi South 8.1 mph - N/A   Clear
6:35 PM 92.3 °F 37.4 °F 15% 30.18 in 10.0 mi South 6.9 mph - N/A   Clear
6:55 PM 91.8 °F 37.9 °F 15% 30.18 in 10.0 mi SSW 6.9 mph - N/A   Clear
7:15 PM 90.5 °F 38.8 °F 16% 30.18 in 7.0 mi SSW 8.1 mph - N/A   Clear
8:35 PM 81.1 °F 43.2 °F 26% 30.21 in 10.0 mi South 9.2 mph - N/A   Clear
8:55 PM 80.8 °F 42.6 °F 26% 30.21 in 7.0 mi South 8.1 mph - N/A   Clear
9:35 PM 76.8 °F 44.6 °F 32% 30.24 in 7.0 mi Calm Calm - N/A   Clear
10:15 PM 76.1 °F 42.1 °F 30% 30.25 in 7.0 mi East 3.5 mph - N/A   Clear
10:35 PM 76.3 °F 41.9 °F 29% 30.25 in 10.0 mi ESE 5.8 mph - N/A   Clear
10:55 PM 75.0 °F 41.9 °F 30% 30.26 in 10.0 mi ESE 4.6 mph - N/A   Clear
11:15 PM 73.4 °F 42.6 °F 33% 30.26 in 7.0 mi SE 4.6 mph - N/A   Clear
11:35 PM 70.5 °F 45.0 °F 40% 30.26 in 7.0 mi Calm Calm - N/A   Clear
11:55 PM 70.0 °F 44.8 °F 40% 30.27 in 10.0 mi NNW 3.5 mph - N/A   Clear